Погода в Фетешти

Румыния     44°22′25″N   27°50′22″E
темп.,
°C
ветер,
м/с
пор.,
м/с
влажн.,
%
обл.,
%
осадки,
мм/ч
давл.,
гПа
погр.,
м
5 марта, пт
пт523:00+9юз34580 0.0 101585
02:00+8юз48550 0.0 1014133
05:00+7зюз49660 0.0 1013174
08:00+7зюз510620 0.0 1013270
11:00+13з46440 0.0 1014432
14:00+16з69369 0.0 10131054
17:00+16з483816 0.0 1013470
20:00+12зюз5124818 0.0 1014265
6 марта, сб
сб623:00+10зюз510522 0.0 1015193
02:00+9з496030 0.0 1016181
05:00+6ссв51080100 0.0 1017453
08:00+5ссв61069100 0.0 1021759
11:00+3ссв71083100 0.1 1024789
14:00+6ссв6848100 0.6 10261471
17:00+6ссв5642100 0.0 10271615
20:00+4ссв244897 0.0 1029102
7 марта, вс
вс723:00+2св22520 0.0 103131
02:00+1св11560 0.0 103122
05:000ююз11570 0.0 103021
08:00+2ююз11490 0.0 103089
11:00+6зюз34360 0.0 10291143
14:00+8зюз46330 0.0 10261697
17:00+8зюз46420 0.0 10231454
20:00+5юз35620 0.0 1023123
8 марта, пн
пн823:00+3ююз486810 0.0 1021182
02:00+2ююз367226 0.0 1020142
05:00+1ююз36710 0.0 101897
08:00+3юз47650 0.0 1017255
11:00+8зюз564511 0.0 1016836
14:00+11з563421 0.0 10141307
17:00+10з46380 0.0 10131270
20:00+7з115016 0.0 101422
9 марта, вт
вт923:00+6юз115291 0.0 101422
02:00+4зсз235848 0.0 101427
05:00+2с410624 0.0 1016374
08:00+2ссв712704 0.0 1018589
11:00+5ссв694647 0.0 1020811
14:00+7св673874 0.0 10211062
17:00+6св5639100 0.0 10211253
20:00+4всв3551100 0.0 1023183